SCP
0 -0 -0 -0 -0 -0 0 0 0 0 0 0 0 0 0 0 0 0 1 1 2 3 3 4 4 4 6 7 8 7 6 5 4 4 3 3 2 2 1 1 1 1 1 1
0 0 -0 -0 0 0 0 0 0 0 0 0 0 0 0 0 0 1 1 2 3 3 4 4 4 5 5 6 7 6 5 5 4 3 3 2 2 1 1 1 1 1 1 1
0 0 0 0 0 0 0 0 0 0 0 0 0 0 0 0 1 1 2 2 3 3 3 4 4 4 4 5 5 5 5 4 4 3 3 2 2 1 1 1 1 1 1 0
0 0 0 0 0 0 0 0 0 0 0 0 0 0 0 1 1 1 2 2 2 2 3 3 3 3 3 3 4 4 5 4 4 3 3 2 2 2 1 1 1 1 1 1
0 0 0 0 0 0 0 0 0 0 0 0 0 0 0 1 1 1 1 1 2 2 2 2 2 2 2 2 3 4 4 4 4 4 3 3 3 2 2 2 2 2 1 1
0 0 0 0 0 0 0 0 0 0 0 0 0 0 0 1 1 1 1 1 1 1 1 1 2 2 2 2 2 3 4 4 4 4 4 4 3 3 3 2 2 2 2 1
0 0 0 0 0 0 0 0 0 0 0 0 0 0 0 1 1 1 1 1 1 1 1 1 1 1 1 1 1 2 3 3 3 3 3 4 4 4 3 3 3 2 2 2
0 0 0 0 0 0 0 0 0 0 0 0 0 0 0 1 1 1 1 1 1 1 1 1 1 1 1 1 1 1 1 2 2 2 2 3 3 3 3 3 3 3 2 2
0 0 0 0 0 0 0 0 0 0 0 0 0 0 1 1 1 1 0 0 0 0 0 0 0 0 0 0 0 0 1 1 1 1 1 1 2 2 2 2 2 2 2 2
0 0 0 0 0 0 0 0 0 0 0 0 0 0 1 1 1 0 0 0 0 0 0 0 0 0 0 0 0 0 0 0 0 0 0 1 1 1 1 1 2 2 2 2
0 0 0 0 0 0 0 0 0 0 0 0 0 0 1 1 1 0 0 0 0 0 0 0 0 0 0 0 0 0 0 0 0 0 0 0 0 0 1 1 1 1 1 1
0 0 0 0 0 0 0 0 0 0 0 0 0 1 1 1 1 0 0 0 0 0 0 0 0 0 0 0 0 0 0 0 0 0 0 0 0 0 0 0 0 0 1 1
0 0 0 0 0 0 0 0 0 0 0 0 0 1 1 1 1 0 0 0 0 0 0 0 0 0 0 0 0 0 0 0 0 0 0 0 0 0 0 0 0 0 0 0
0 0 0 0 0 0 0 0 0 0 0 0 0 0 1 1 0 0 0 0 0 0 0 0 0 0 0 0 0 0 0 0 0 0 0 0 0 0 0 0 0 0 0 0
0 0 0 0 0 0 0 0 0 0 0 0 0 0 0 0 0 0 0 0 0 0 0 0 0 0 0 0 0 0 0 0 0 0 0 0 0 0 0 0 0 0 0 0
0 0 0 0 0 0 0 0 0 0 0 0 0 0 0 0 0 0 0 0 0 0 0 0 0 0 0 0 0 0 0 0 0 0 0 0 0 0 0 0 0 0 0 0
0 0 0 0 0 0 0 0 0 0 0 0 0 0 0 0 0 0 0 0 0 0 0 0 0 0 0 0 0 0 0 1 1 0 0 0 0 0 0 0 0 0 0 0
0 0 0 0 0 0 0 0 0 0 0 0 0 0 0 0 0 0 0 0 0 0 0 0 0 0 0 0 1 1 0 0 0 0 0 0 0 0 0 0 0 0 0 0
0 0 0 0 0 0 0 0 0 0 0 0 0 0 0 0 0 0 0 0 0 0 0 0 0 0 0 1 1 1 0 0 0 0 0 0 0 0 0 0 0 0 0 0
0 0 0 0 0 0 0 0 0 0 0 0 0 0 0 0 0 0 0 0 0 0 0 0 0 0 0 1 1 1 0 0 0 0 0 0 0 0 0 0 0 0 0 0
0 0 0 0 0 0 0 0 0 0 0 0 0 0 0 0 0 0 0 0 0 0 0 0 0 0 1 1 1 0 0 0 0 0 0 0 0 0 0 0 0 0 0 0
0 0 0 0 0 0 0 0 0 0 0 0 0 0 0 0 0 0 0 0 0 0 0 0 0 0 1 1 1 0 0 0 0 0 0 0 0 0 0 0 0 0 0 0
0 0 0 0 0 0 0 0 0 0 0 0 0 0 0 0 0 0 0 0 0 0 0 0 0 0 0 0 0 0 0 0 0 0 0 0 0 0 0 0 0 0 0 0
0 0 0 0 0 0 0 0 0 0 0 0 0 0 0 0 0 0 0 0 0 0 0 0 0 0 0 0 0 0 0 0 0 0 0 0 0 0 0 0 0 0 0 0
0 0 0 0 0 0 0 0 0 0 0 0 0 0 0 0 0 0 0 0 0 0 0 0 0 0 0 0 0 0 0 0 0 0 0 0 0 0 0 0 0 0 0 0
0 0 0 0 0 0 0 0 0 0 0 0 0 0 0 0 0 0 0 0 0 0 0 0 0 0 0 0 0 0 0 0 0 0 0 0 0 0 0 0 0 0 0 0
Wind_Speed
9 10 8 7 6 10 12 14 13 7 3 1 7 12 9 4 3 4 3 2 3 3 5 6 5 6 8 8 8 7 6 5 3 2 2 2 2 2 2 2 3 2 1 1
7 5 5 7 7 10 10 11 12 8 4 5 9 12 12 8 6 4 2 3 4 5 5 8 7 6 7 7 7 7 5 4 3 2 1 1 0 1 0 2 3 1 0 2
3 2 3 6 6 8 8 8 10 11 9 9 12 15 14 11 7 3 3 7 8 8 8 8 9 8 9 6 4 5 4 3 2 2 2 1 1 2 1 1 2 2 0 2
5 1 4 7 7 7 7 8 9 10 11 11 14 13 11 8 5 7 10 12 14 11 10 9 9 8 8 6 5 5 4 3 2 1 2 2 2 2 1 1 1 1 1 3
6 6 6 7 6 7 8 9 11 14 14 15 15 12 5 6 9 8 8 10 11 6 7 9 9 9 8 7 6 5 5 4 3 3 3 3 4 4 3 3 2 1 3 4
10 7 6 6 7 7 9 11 13 11 9 12 13 13 4 4 9 8 7 9 9 6 8 11 10 10 8 8 8 8 7 6 5 5 5 4 5 5 6 5 5 4 3 4
11 7 5 5 7 5 8 10 8 6 2 4 5 8 4 4 9 10 11 11 11 10 10 11 11 10 9 10 10 10 9 9 8 8 7 6 6 6 6 6 6 5 4 4
4 4 6 5 6 7 8 10 9 11 10 5 10 7 2 8 10 11 11 10 11 11 10 10 10 9 9 10 10 10 9 8 8 7 7 6 7 6 6 7 7 7 6 6
5 5 7 6 7 8 8 9 12 12 14 13 2 7 6 8 6 5 7 8 9 9 9 8 8 8 8 8 8 8 8 7 7 7 7 6 6 6 7 7 7 6 6 7
8 10 10 8 9 6 7 9 8 8 10 13 12 2 5 8 8 5 3 7 7 6 7 7 6 6 6 6 5 6 6 5 5 6 6 7 7 6 7 7 8 7 8 8
11 11 12 9 6 9 10 10 8 8 9 11 13 6 5 6 4 3 5 6 6 6 7 6 6 6 6 6 7 6 6 6 5 5 5 5 6 6 6 6 7 8 8 8
11 10 11 12 7 7 8 8 8 7 8 10 12 4 9 8 6 5 6 6 6 6 7 8 8 8 8 8 8 8 7 7 6 6 5 5 6 6 6 7 7 8 9 9
9 7 11 8 2 1 7 9 7 7 8 10 10 3 4 4 6 6 6 7 7 7 8 8 8 8 8 8 8 8 8 8 8 7 7 6 6 7 7 7 7 8 8 9
4 7 11 14 15 14 11 9 8 7 7 9 11 5 3 5 6 7 7 8 9 10 9 9 7 7 7 7 8 9 9 8 8 7 8 8 7 8 8 8 8 8 8 9
5 8 12 15 17 15 12 10 9 9 10 10 12 9 6 5 6 8 10 11 13 13 13 9 7 6 7 8 8 8 8 8 8 8 8 8 8 8 8 8 8 8 8 11
7 8 13 16 14 10 7 10 10 10 11 12 12 8 5 6 8 11 13 15 17 15 12 10 10 10 9 9 9 9 8 8 8 8 9 8 9 9 9 9 9 8 8 9
9 11 12 13 14 11 6 10 10 11 11 11 13 11 11 11 12 14 16 17 15 12 12 13 12 10 8 9 8 9 8 8 8 9 10 9 9 9 9 11 10 8 8 9
5 8 7 12 12 7 7 8 9 10 11 13 11 11 12 14 16 16 17 12 13 15 16 15 13 13 11 10 9 9 10 9 9 9 10 10 9 10 9 9 9 8 8 8
1 4 7 7 10 3 6 8 9 12 13 12 12 14 17 18 18 16 13 17 18 17 15 14 14 15 11 11 10 10 10 11 11 12 10 10 10 10 9 10 9 8 8 9
3 5 8 9 11 8 6 9 11 13 6 12 15 17 18 19 17 14 17 19 18 15 14 14 15 15 12 10 9 10 13 12 12 12 11 10 10 10 10 10 9 9 8 9
9 9 8 9 10 5 8 13 14 11 11 16 17 17 18 17 17 18 20 18 17 15 15 14 14 12 10 10 9 11 13 12 12 12 11 10 9 10 10 10 9 8 9 10
7 7 8 8 9 5 11 12 10 10 12 15 17 18 19 19 20 20 20 18 17 17 17 17 12 10 9 9 10 11 11 11 11 11 11 11 10 12 12 8 8 8 8 10
4 6 5 6 6 7 8 9 10 11 14 16 17 19 20 21 21 22 20 18 17 18 16 15 15 12 10 10 10 12 11 11 11 11 12 11 11 10 10 10 10 8 7 8
5 2 5 6 7 9 11 12 13 14 16 17 18 20 20 21 22 22 19 17 16 16 15 15 16 15 13 11 12 12 12 12 12 12 11 10 10 10 10 8 8 7 7 7
4 5 6 9 10 11 11 14 15 16 17 18 19 20 21 22 22 21 18 16 16 16 15 14 14 14 15 13 13 14 12 10 12 12 12 12 11 10 9 9 7 8 7 7
5 6 6 8 10 12 14 15 17 17 18 19 20 21 21 21 21 21 19 17 16 17 16 16 16 16 15 15 14 13 12 11 11 11 11 9 9 8 8 8 8 9 9 9
Wind_Direction
241 243 267 314 311 305 305 305 303 305 55 335 280 283 281 263 250 249 239 165 140 104 112 108 95 98 109 113 115 121 128 132 144 162 187 208 206 224 218 176 117 95 337 345
246 272 345 341 323 297 286 287 292 296 305 280 278 274 270 252 241 237 163 106 120 125 107 97 93 85 87 102 112 116 122 147 162 140 161 195 285 277 222 82 113 130 26 347
290 25 345 282 275 288 295 298 306 314 314 287 272 263 251 237 217 218 92 63 41 59 70 76 76 70 72 70 84 109 123 136 132 146 208 215 198 262 263 165 159 144 151 277
308 316 287 295 307 311 317 329 318 301 288 278 276 275 253 211 153 65 51 52 45 37 54 59 68 67 67 63 67 74 89 85 82 65 356 323 280 281 286 235 208 135 242 248
294 292 290 300 314 316 311 312 297 287 283 279 278 277 282 118 103 85 75 70 71 49 59 62 61 63 56 51 50 48 58 59 37 16 351 325 315 321 329 340 308 245 250 236
283 277 281 297 300 297 304 298 285 284 305 298 326 319 276 133 132 134 123 105 105 96 73 64 56 51 46 39 40 39 38 36 19 11 360 342 324 320 318 317 307 290 269 247
303 314 305 279 296 325 315 301 298 309 294 249 291 294 285 115 114 118 110 103 93 77 66 63 55 49 42 37 32 35 34 31 20 15 4 353 338 322 303 295 294 292 286 278
316 322 290 305 322 316 302 293 296 308 304 267 200 214 88 50 64 81 86 86 82 77 67 61 56 49 42 39 33 31 29 27 16 13 3 357 353 338 329 332 325 313 304 301
315 295 293 304 298 295 303 308 316 305 299 305 286 104 81 64 35 49 87 81 69 68 65 56 50 43 37 35 34 26 22 20 11 4 352 349 358 347 337 328 320 316 316 310
310 313 310 297 287 281 282 299 307 310 314 312 315 84 169 168 182 195 115 77 61 48 49 47 41 34 28 21 22 19 10 6 360 354 349 347 346 339 335 330 327 322 319 317
319 308 301 307 311 313 313 309 318 311 308 313 315 4 77 127 136 115 83 69 48 24 17 15 13 5 358 359 356 356 350 345 340 334 330 327 326 328 326 320 320 320 314 311
339 324 316 308 312 338 320 303 301 304 313 308 304 36 59 71 65 42 47 45 29 4 351 350 348 346 343 342 340 334 329 322 319 318 313 309 309 309 308 307 310 309 307 305
345 323 306 303 340 285 269 277 290 299 296 298 309 38 88 68 62 46 20 7 351 341 334 330 331 330 325 323 319 310 303 299 296 295 292 288 286 286 285 286 288 290 292 295
283 283 288 299 307 309 300 305 320 324 318 321 335 29 101 52 23 8 355 339 327 323 319 312 309 304 300 296 291 291 290 289 287 283 283 280 276 275 274 275 275 278 281 285
319 306 312 307 305 310 318 334 347 350 347 339 346 9 44 35 356 342 334 326 317 312 308 306 306 304 300 296 292 290 288 286 283 281 279 276 275 275 274 274 274 275 279 286
331 310 308 303 308 314 337 12 8 360 355 344 338 347 28 356 342 336 330 322 314 313 319 324 317 312 310 308 303 299 295 291 286 283 282 281 278 276 273 273 272 272 276 283
336 336 318 305 309 304 34 26 9 355 351 345 332 341 354 345 337 331 326 315 319 335 330 319 315 312 309 306 300 295 295 290 286 282 284 283 281 282 280 282 281 279 283 284
343 329 306 302 315 340 68 36 15 347 338 341 345 357 349 333 329 323 312 327 343 329 320 317 315 312 305 301 296 292 295 292 289 287 286 285 280 280 281 279 278 280 283 284
21 324 310 315 330 23 93 37 5 338 329 21 4 343 334 331 319 309 331 342 327 319 316 313 310 306 302 297 294 292 292 290 287 287 285 285 282 282 281 281 280 281 279 281
328 307 291 316 322 344 54 14 346 319 309 22 347 336 330 323 316 320 330 320 314 316 314 309 305 302 297 293 291 290 292 290 288 289 286 283 277 278 281 281 278 280 280 279
338 328 329 333 321 55 26 356 346 328 340 342 331 325 321 320 313 313 316 317 316 311 308 304 301 298 295 293 288 287 290 289 288 287 282 280 278 278 275 271 270 271 274 276
341 340 353 337 327 22 7 355 354 327 325 324 324 322 318 315 313 314 315 314 312 311 308 307 302 296 291 289 287 286 286 286 285 285 284 282 278 280 283 276 274 271 269 273
27 40 338 335 326 343 355 344 341 337 327 324 321 319 317 316 316 316 314 312 311 310 309 309 308 304 301 298 295 294 292 289 288 286 284 282 282 280 279 275 274 272 267 268
93 61 320 318 320 347 343 342 341 335 326 321 320 320 319 316 315 313 313 314 314 314 315 314 311 307 306 306 303 298 295 293 292 289 286 282 282 280 278 272 270 269 268 268
334 335 332 313 345 338 334 341 335 326 324 322 321 320 318 315 315 318 318 318 319 318 316 316 314 312 309 306 302 300 302 302 299 295 291 287 281 278 276 272 267 268 264 261
41 25 346 332 341 324 325 331 326 327 325 323 322 319 318 320 321 323 322 321 320 320 322 319 315 312 310 307 303 301 298 295 292 289 286 284 283 280 276 273 275 263 256 259